Lapse_Rate
4.5 4.2 4.0 4.0 4.0 4.1 3.6 2.8 2.4 1.9 1.7 1.5 0.2 -0.2 -0.8 -0.9 -1.5 0.0 2.6 3.9 4.0 3.3 3.4 4.6 5.1 4.5 4.9 5.6 5.3 4.6 6.5 6.5 6.5 6.5 6.5 7.1 6.6 7.0 6.7 7.2 6.6 6.9 7.4 7.4 6.6
3.3 3.3 3.5 3.8 4.0 3.7 3.2 2.8 2.2 2.0 1.3 0.8 0.5 0.0 -0.4 -0.5 -1.0 1.5 4.3 4.0 4.0 3.8 5.1 5.1 5.6 5.3 5.9 6.1 6.1 6.7 6.5 6.5 6.6 6.6 6.5 6.9 7.0 7.0 7.0 7.1 6.9 7.3 7.5 7.2 7.1
3.1 3.3 3.5 3.6 3.0 2.7 2.2 2.1 1.8 1.6 1.2 0.7 0.4 0.0 0.3 -0.1 2.5 5.4 3.6 3.8 3.8 3.8 4.7 5.1 5.5 6.0 6.6 6.5 6.7 6.8 6.5 6.5 6.7 7.0 7.2 6.9 6.9 7.0 6.9 6.5 7.1 7.1 7.2 6.7 6.3
3.3 3.4 3.4 3.0 2.7 2.4 1.9 1.5 1.5 1.4 1.1 1.0 0.4 0.2 0.7 1.5 6.5 3.3 3.0 3.3 3.6 4.2 6.2 6.1 6.4 6.4 6.7 6.5 6.8 6.5 6.8 6.9 7.0 6.7 7.0 6.7 7.2 6.9 7.1 7.0 6.8 6.7 6.0 5.7 6.7
2.8 2.8 2.8 2.5 2.3 2.0 1.6 1.4 1.3 1.4 1.1 1.4 0.8 0.7 1.7 4.0 4.0 1.9 2.0 3.0 4.0 5.2 5.9 6.2 6.5 6.6 6.5 6.7 6.9 6.5 6.6 7.0 7.0 6.2 6.7 6.8 6.9 6.8 7.0 7.4 6.7 6.3 5.7 6.2 4.8
2.5 2.6 2.6 2.3 1.8 1.8 1.6 1.6 1.5 1.4 1.6 1.8 1.2 1.0 2.9 6.3 3.0 1.6 1.6 3.2 4.5 5.8 6.0 6.6 6.8 6.6 6.9 6.8 6.6 6.9 6.9 6.9 6.8 7.1 7.1 6.7 6.7 7.0 7.0 7.2 7.1 6.5 6.8 5.1 3.0
2.7 2.5 2.9 2.5 2.1 1.9 1.6 1.7 1.8 1.6 1.9 2.0 1.4 1.4 2.4 3.6 1.7 1.1 1.5 3.4 4.0 5.0 6.2 6.4 6.4 7.1 6.8 6.6 6.9 7.0 6.5 6.5 6.7 6.9 6.6 7.0 6.5 6.5 7.4 7.6 7.4 6.8 7.2 4.6 3.3
3.3 3.2 3.1 2.6 2.1 1.9 1.9 1.7 1.9 2.1 2.4 1.8 1.2 2.0 3.2 1.8 1.8 2.2 2.0 2.9 2.6 4.1 5.6 5.8 6.2 6.7 6.9 7.1 6.9 6.5 6.5 6.5 6.5 6.7 6.7 6.7 6.5 6.5 7.5 7.3 7.1 6.8 7.2 4.5 4.5
4.0 3.2 3.0 2.8 2.3 2.0 1.9 2.2 2.4 2.3 1.8 1.6 1.9 2.9 3.8 3.3 4.1 4.7 3.8 5.2 3.8 3.9 5.4 7.2 7.4 6.6 6.9 6.5 6.5 6.5 6.5 6.5 6.5 6.7 6.5 6.5 6.5 6.7 7.3 7.2 7.0 7.3 7.1 6.9 5.5
4.6 3.5 3.2 2.6 2.5 2.3 2.4 2.4 2.4 1.9 2.3 3.4 4.5 4.8 4.1 5.4 5.1 4.9 4.1 5.1 5.9 5.3 7.1 7.1 6.4 6.5 6.5 6.5 6.5 6.5 6.5 6.5 6.5 6.5 6.5 6.5 6.5 6.5 7.1 7.1 7.0 7.3 6.9 6.9 7.6
5.7 4.1 3.4 3.1 3.0 2.4 1.7 1.7 3.5 4.0 3.9 3.9 4.7 3.6 3.8 3.7 4.3 5.6 5.5 6.1 6.8 6.9 6.5 6.9 6.5 6.5 6.5 6.5 6.5 6.5 6.5 6.5 6.5 6.5 6.5 6.5 6.5 6.5 6.9 7.0 7.0 7.2 7.4 7.6 7.7
7.2 5.5 4.7 3.5 3.4 2.9 1.8 3.1 4.2 4.2 5.9 2.1 2.4 3.2 4.1 4.8 4.2 5.2 6.1 6.6 6.6 6.5 6.7 6.5 6.5 6.5 6.5 6.5 6.5 6.5 6.5 6.5 6.5 6.5 6.5 6.5 6.5 6.5 6.6 6.8 7.2 7.3 7.5 7.6 7.7
7.5 6.3 5.7 4.4 3.3 2.5 2.3 3.5 4.3 6.0 6.2 4.6 4.4 4.9 4.8 5.2 6.2 5.1 6.2 6.2 6.6 6.5 6.5 6.5 6.5 6.6 6.5 6.5 6.5 6.5 6.5 6.5 6.5 6.5 6.5 6.5 6.5 6.5 6.5 7.0 7.3 7.5 7.7 7.7 7.5
7.6 6.8 5.7 4.5 4.0 2.8 3.6 4.2 3.3 5.0 6.5 6.5 6.5 6.8 6.2 6.2 6.5 5.5 5.7 6.2 6.5 6.5 6.5 6.5 6.6 6.5 6.5 6.5 6.5 6.5 6.5 6.5 6.5 6.5 6.5 6.5 6.5 6.5 6.5 6.5 6.6 7.2 7.5 7.6 7.7
7.1 6.9 6.2 5.0 4.0 4.5 5.2 3.6 4.1 5.1 6.5 6.5 6.5 7.4 6.6 6.7 6.7 7.0 6.6 6.8 6.5 6.5 6.5 6.5 6.5 6.5 6.5 6.5 6.5 6.5 6.5 6.5 6.5 6.5 6.5 6.5 6.5 6.5 6.5 6.5 6.5 6.9 7.3 7.6 7.2
6.8 6.9 6.1 4.1 3.9 4.8 4.0 4.3 5.3 6.5 6.5 6.5 6.7 6.5 6.5 6.7 6.7 7.0 6.8 7.1 6.4 6.5 6.5 6.5 6.8 6.5 6.5 6.5 6.5 6.5 6.5 6.5 6.5 6.5 6.5 6.5 6.5 6.5 6.5 6.5 6.5 6.9 7.4 7.6 7.2
6.7 6.7 6.2 4.7 5.2 4.4 4.2 6.4 6.5 6.5 6.5 6.5 6.5 6.5 6.5 6.5 6.5 6.5 6.5 6.5 6.5 6.5 6.5 6.5 6.5 6.5 6.5 6.5 6.5 6.5 6.5 6.5 6.5 6.5 6.5 6.5 6.5 6.5 6.5 6.5 6.5 6.7 7.3 7.6 7.8
6.9 6.9 5.9 5.2 5.1 4.9 5.5 6.4 6.5 6.5 6.5 6.5 6.5 6.5 6.5 6.5 6.5 6.5 6.5 6.5 6.5 6.5 6.5 6.5 6.5 6.5 6.5 6.5 6.5 6.5 6.5 6.5 6.5 6.5 6.5 6.5 6.5 6.5 6.5 6.9 7.2 7.4 7.6 7.7 7.5
6.3 5.3 6.1 4.5 5.3 5.2 6.4 6.5 6.5 6.5 6.5 6.5 6.5 6.5 6.5 6.5 6.5 6.5 6.5 6.5 6.5 6.5 6.5 6.5 6.5 6.5 6.5 6.5 6.5 6.5 6.5 6.5 6.5 6.5 6.5 6.5 6.5 6.5 6.5 6.5 6.9 7.1 7.4 7.4 7.5
5.3 6.2 6.1 4.6 5.6 6.0 6.5 6.5 6.5 6.6 6.5 6.5 6.5 6.5 6.5 6.5 6.5 6.5 6.5 6.5 6.5 6.5 6.6 6.5 6.5 6.5 6.5 6.6 6.6 6.5 6.5 6.5 6.5 6.5 6.5 6.5 6.5 6.5 6.5 6.5 6.5 6.7 7.1 7.5 7.1
5.4 6.6 4.7 5.3 5.8 6.6 6.5 6.5 6.5 6.5 6.8 6.5 6.5 6.5 6.5 6.5 6.5 6.5 6.5 6.5 6.5 6.5 6.6 6.5 6.5 6.5 6.5 6.5 6.5 6.5 6.5 6.5 6.5 6.5 6.5 6.5 6.5 6.5 6.5 6.5 6.5 6.7 7.3 7.6 7.2
5.5 6.5 4.1 5.3 6.5 6.2 6.5 6.5 6.7 6.6 6.5 6.5 6.5 6.5 6.5 6.5 6.5 6.5 6.5 6.5 6.3 6.5 6.5 6.5 6.5 6.5 6.5 6.5 6.5 6.5 6.5 6.5 6.5 6.5 6.5 6.5 6.5 6.5 6.5 6.5 6.9 7.0 7.3 7.6 5.3
5.7 5.5 5.4 6.7 6.5 6.5 6.5 6.5 6.5 6.5 6.5 6.5 6.5 6.5 6.5 6.5 6.5 6.5 6.5 6.4 5.8 6.5 6.5 6.5 6.5 6.5 6.5 6.5 6.5 6.5 6.5 6.5 6.5 6.5 6.5 6.5 6.5 6.5 6.6 6.6 7.0 7.0 7.3 6.3 4.5
5.4 6.5 5.8 6.2 5.8 6.5 6.5 6.5 6.5 6.4 6.6 6.7 6.5 6.6 6.5 6.5 6.5 6.5 6.5 6.5 6.3 6.7 6.1 6.4 6.5 6.5 6.5 6.5 6.5 6.5 6.5 6.5 6.5 6.5 6.5 6.5 6.5 6.5 6.5 6.5 6.8 7.1 6.1 6.1 7.1
5.5 6.5 6.2 6.5 6.5 6.5 6.5 6.5 6.5 6.5 6.7 6.8 6.5 6.5 6.5 6.5 6.5 6.5 6.5 6.5 6.4 6.4 6.5 6.5 6.5 6.5 6.5 6.5 6.5 6.5 6.5 6.5 6.5 6.5 6.5 6.5 6.5 6.5 6.5 6.5 6.8 7.2 7.5 7.4 7.6
5.9 6.5 6.9 6.8 6.7 6.5 6.5 6.5 6.5 6.5 6.5 6.5 6.5 6.5 6.5 6.5 6.5 6.5 6.5 6.5 6.5 6.5 6.5 6.5 6.5 6.5 6.5 6.5 6.5 6.5 6.5 6.5 6.5 6.5 6.5 6.5 6.5 6.5 6.9 7.1 7.1 7.2 7.3 7.3 7.4
5.5 5.6 5.9 6.8 6.5 6.5 6.5 6.5 6.5 6.5 6.7 6.9 6.6 6.5 6.5 6.5 6.8 6.8 6.6 6.9 6.6 6.5 6.5 6.5 6.5 6.5 6.5 6.5 6.5 6.5 6.5 6.5 6.5 6.5 6.5 6.5 6.5 6.5 6.5 6.6 7.0 7.3 7.5 7.4 7.5
Wind_Speed
7 5 5 5 6 9 10 10 11 12 13 15 16 19 20 24 24 3 2 2 3 10 5 3 4 5 3 3 3 1 1 2 2 5 1 5 8 5 7 3 5 3 4 7 9
1 1 1 3 6 8 10 11 11 12 13 14 14 17 21 23 4 3 4 4 7 10 4 7 5 6 3 2 2 2 2 4 2 0 4 8 9 9 8 12 2 8 6 7 13
1 1 2 2 5 7 8 9 10 11 11 11 12 16 23 16 4 1 5 6 10 8 2 1 1 2 2 2 3 2 3 3 2 2 4 2 6 2 7 5 10 13 17 16 14
3 3 3 3 4 5 6 8 9 9 9 8 11 15 22 3 5 1 7 6 7 5 2 2 3 2 2 1 2 1 3 2 2 2 3 5 2 6 7 8 9 12 11 8 15
3 3 3 4 5 7 7 7 7 7 7 7 10 14 5 4 7 2 8 9 3 2 3 1 2 2 2 1 2 2 2 4 5 8 6 5 8 6 7 7 8 8 11 13 12
3 3 4 5 5 7 7 8 6 5 5 6 9 10 1 4 2 4 7 4 5 3 3 2 2 1 2 1 2 0 3 8 4 12 5 5 2 6 2 9 10 12 12 12 15
2 2 6 7 8 9 9 9 7 3 2 4 7 2 1 12 2 6 4 1 1 3 2 2 4 2 1 1 2 4 6 7 4 1 2 3 2 4 3 11 12 11 11 15 16
1 4 7 8 9 11 11 8 5 4 2 0 3 1 7 2 6 8 2 3 2 3 3 3 3 2 0 1 3 2 1 3 1 4 3 1 4 7 14 13 15 9 10 13 17
2 3 6 9 10 8 8 5 2 3 2 1 1 1 8 5 2 2 2 3 6 4 4 1 2 2 0 2 2 2 3 2 5 5 6 8 5 11 15 10 12 13 11 12 13
4 2 5 6 8 7 7 5 3 3 1 1 1 1 4 2 2 2 2 0 3 8 4 3 3 2 2 3 5 1 2 2 3 4 12 11 10 9 12 11 12 10 9 12 13
6 1 3 6 6 4 4 2 3 1 1 6 2 3 3 8 4 3 2 4 4 2 4 3 4 10 13 9 3 3 3 8 8 9 5 7 12 11 13 7 10 7 9 11 12
6 1 2 4 5 2 2 2 3 2 8 9 13 9 3 2 5 2 1 4 4 5 6 3 7 12 3 6 6 9 9 11 7 6 7 8 16 12 6 5 6 7 8 9 9
7 4 2 4 3 3 1 2 1 3 3 7 3 4 3 8 7 6 4 4 4 6 8 7 2 5 8 5 8 6 8 9 8 7 6 8 6 5 5 7 7 8 8 9 8
10 6 3 3 3 1 2 4 6 3 3 4 3 3 4 2 3 5 4 4 5 12 7 6 5 6 6 6 8 6 11 11 8 7 4 5 6 8 4 5 5 5 6 6 6
12 8 4 4 2 0 2 8 3 2 3 2 3 3 5 2 1 1 3 1 7 6 6 5 5 5 8 10 8 6 5 6 7 8 5 4 6 2 6 2 4 6 6 5 5
12 9 7 4 1 3 10 7 2 4 7 1 4 4 3 2 0 3 2 1 2 4 1 3 1 3 6 5 8 2 1 2 2 3 6 9 9 3 7 6 7 9 8 7 5
14 12 6 6 2 4 2 2 3 3 4 1 0 3 3 3 2 3 4 4 4 4 4 2 7 4 4 5 3 5 3 3 3 3 5 3 6 11 8 10 10 14 12 9 4
14 14 3 2 3 7 1 2 3 3 4 2 1 3 2 4 2 4 5 5 4 2 3 3 3 5 4 8 4 6 7 4 4 3 3 3 6 3 4 7 7 10 11 8 5
16 2 2 1 6 2 1 2 7 5 2 0 1 1 1 1 2 2 4 4 6 10 5 4 5 1 4 3 5 4 6 2 4 1 5 5 7 4 9 7 9 12 12 10 5
3 3 2 6 9 2 3 7 5 4 1 2 5 1 2 2 2 2 2 2 1 2 4 3 8 5 2 4 2 6 6 3 1 4 6 6 7 9 9 13 13 15 14 11 10
3 3 2 11 3 1 7 7 3 3 2 3 0 1 1 1 1 2 2 1 3 3 3 1 2 2 1 6 9 4 4 2 2 3 4 7 7 5 11 13 17 17 15 12 11
4 3 1 7 3 2 12 5 2 2 3 5 2 2 3 3 2 2 4 1 3 3 8 4 4 5 8 0 4 3 5 8 7 7 5 5 11 1 5 7 12 10 8 10 9
5 3 2 4 7 6 7 7 5 1 3 4 4 5 4 5 3 5 6 3 6 2 1 2 2 5 5 2 2 6 11 11 6 5 17 6 9 2 3 6 8 11 10 10 10
4 4 3 4 2 13 7 12 8 4 8 1 1 3 3 3 4 3 2 2 1 2 6 4 3 8 12 11 2 6 8 11 11 5 12 18 20 8 6 9 10 12 14 14 9
4 4 3 6 13 8 10 5 17 10 7 8 5 12 4 4 3 9 4 3 3 4 2 5 11 10 13 15 13 14 13 12 15 17 11 20 16 11 10 11 9 10 12 13 10
5 4 3 3 10 15 10 10 17 5 8 7 13 5 13 16 17 9 10 10 9 3 4 2 4 3 13 11 13 17 16 14 16 16 19 21 22 1 2 7 10 12 14 12 10
2 2 5 7 7 11 16 18 11 10 8 11 9 7 12 10 10 11 11 11 11 11 7 5 4 4 14 4 2 8 21 19 18 18 16 17 18 7 7 8 9 11 11 11 10
Wind_Direction
266 279 309 325 327 321 319 326 332 329 322 324 328 328 328 325 323 355 333 309 311 333 337 326 26 3 35 64 48 133 116 218 199 179 77 18 19 339 291 292 316 334 299 315 314
175 198 300 336 327 327 333 338 337 329 324 320 320 327 325 328 319 315 290 313 346 353 43 38 7 359 60 30 50 77 191 207 173 53 9 3 10 335 328 338 329 314 310 321 324
306 331 328 335 321 324 339 338 334 335 330 325 329 332 322 329 305 129 359 21 357 8 43 72 64 45 53 8 31 122 223 169 123 80 54 11 322 274 297 315 312 316 323 328 321
358 356 356 355 344 332 341 339 339 329 328 333 335 331 323 308 313 110 343 346 350 346 21 32 36 65 96 111 30 293 264 287 322 52 332 291 267 287 275 273 315 311 304 306 339
65 40 14 1 343 330 332 340 342 333 345 327 334 337 355 358 255 3 19 4 27 32 67 60 68 104 175 15 313 209 313 322 306 294 268 260 254 245 263 330 322 322 331 4 4
84 9 341 331 339 323 330 329 335 346 356 323 333 342 360 295 104 38 2 356 34 43 59 40 100 97 102 143 260 131 289 299 294 288 281 257 236 178 173 349 345 343 8 32 25
100 38 340 338 340 330 329 325 317 321 309 327 328 15 199 246 44 327 328 269 140 69 72 32 40 100 165 232 318 326 315 319 285 10 55 249 123 154 357 339 338 350 28 46 39
51 9 347 341 344 341 330 323 279 249 225 195 341 16 248 243 303 298 209 255 219 186 177 297 337 75 208 91 8 307 75 300 60 330 38 79 251 315 329 342 333 346 49 57 48
136 15 356 342 348 353 345 341 49 82 139 121 14 351 268 316 288 33 177 95 107 126 176 5 94 75 45 73 342 354 265 206 319 13 25 34 294 307 318 325 320 336 54 70 59
114 356 345 347 346 356 342 328 340 43 338 242 204 258 287 300 320 80 192 206 101 124 113 128 84 136 103 162 263 228 245 226 258 309 326 306 283 281 299 318 329 8 71 68 67
127 293 14 338 337 359 352 353 360 311 258 218 201 272 287 298 290 64 186 153 122 97 160 169 190 206 222 202 127 109 273 282 274 273 285 276 292 291 292 26 358 26 89 81 69
144 156 352 343 350 62 35 81 121 217 299 239 251 268 278 12 341 240 194 180 157 177 132 128 240 227 175 183 226 254 271 273 290 268 288 295 299 312 62 61 44 84 85 89 84
150 155 353 337 14 56 304 222 206 42 263 294 190 239 219 179 217 246 199 159 162 175 186 195 211 146 183 188 220 240 242 256 265 306 273 316 289 162 80 89 84 80 99 94 85
162 160 120 6 48 279 266 299 284 165 7 268 234 258 152 161 262 212 225 169 192 218 164 233 235 158 162 220 193 246 231 246 267 308 294 2 298 215 165 105 90 104 102 102 98
168 158 128 96 160 240 340 356 115 44 337 135 145 143 137 202 296 47 190 175 175 159 164 220 174 176 205 232 185 241 188 257 276 275 300 218 255 180 154 212 183 164 151 143 127
168 163 145 103 57 249 309 318 23 47 249 111 126 167 130 214 295 153 139 303 143 134 45 253 268 215 209 210 189 105 200 28 32 261 258 227 227 176 190 204 186 186 183 177 174
171 165 166 140 205 302 348 137 61 173 346 23 247 159 180 178 183 172 156 176 157 141 216 291 239 251 195 234 165 185 153 284 258 205 266 349 224 255 189 188 192 188 189 187 158
172 166 183 160 133 347 62 106 165 213 233 323 318 142 172 165 216 170 151 185 210 97 144 200 275 185 164 208 174 178 187 199 252 220 282 330 247 261 170 171 182 183 188 178 165
127 101 137 231 211 15 186 174 213 203 195 234 272 125 295 231 205 178 217 208 200 181 199 188 252 247 187 158 182 159 198 198 260 188 269 244 254 209 170 193 190 195 190 192 181
112 113 215 156 156 103 218 239 223 216 340 44 188 84 204 351 139 142 233 200 59 179 7 285 271 220 152 123 78 206 149 160 104 248 246 235 252 245 214 221 211 213 208 196 149
97 142 226 152 115 132 208 223 233 246 52 56 203 208 132 157 144 202 215 336 81 55 98 35 277 294 103 207 199 165 205 185 222 193 263 274 256 209 220 218 208 211 209 191 152
118 175 215 160 147 204 221 189 243 234 33 228 240 233 202 161 222 261 239 236 123 114 324 216 192 247 250 312 350 311 245 210 232 227 223 283 264 341 252 217 205 201 175 139 123
144 119 250 195 193 214 217 242 240 244 200 208 224 215 195 201 268 222 240 262 294 17 4 22 246 263 260 215 277 253 259 233 245 268 249 248 264 61 119 149 177 156 144 142 133
137 159 188 200 156 208 196 221 229 205 235 279 269 2 222 226 218 270 211 326 7 288 201 180 219 249 260 278 288 243 230 223 222 241 252 238 269 231 187 167 164 165 164 153 145
162 198 206 180 207 191 185 217 221 229 221 202 243 235 232 237 200 235 240 293 290 289 222 192 260 243 253 261 260 259 251 227 219 232 223 262 247 264 214 200 191 157 152 143 141
152 165 166 141 181 196 210 217 234 209 222 211 225 217 225 237 234 255 291 276 263 300 182 142 274 271 268 260 247 251 247 234 231 241 245 258 265 72 79 125 156 166 158 153 145
153 133 133 160 160 180 214 224 243 224 251 247 257 257 255 247 242 249 245 260 250 254 249 228 242 254 274 304 347 257 242 222 234 237 247 253 267 176 199 201 176 162 158 151 140